STARLINK-11187, 60184

Orbit data source: Space-Track

STARLINK-11187, 60184 is a payload satellite owned by SpaceX/Seattle (US) in LEO that was launched on Wed, 03 Jul 2024 UTC via an FALCON 9 launch vehicle from the Air Force Eastern Test Range (AFETR). Payload-class satellites include a variety of spacecraft equipped with specific instruments for various scientific and technological missions. These include communications satellites like Starlink; space stations such as the ISS; scientific satellites like the Hubble; Earth observation satellites from companies like Planet Labs, Umbra, and HawkEye 360; GPS; miniature CubeSats for education and research; and military/defense satellites.

Loading next visibility...
Identifier
60184, 2024-124B
Orbit
LEO
Last TLE update
19 hours ago
Origin
Manufacturer
SpaceX/Seattle
Mission
Operational Commercial Communications
Bus & Motor
STARLINK V2M, Unknown motor
Mass
730 kg wet, ~700 kg dry
Launch date (UTC)
2024-07-03 (10 months ago)
Launch vehicle
FALCON 9
Launch site
Air Force Eastern Test Range (AFETR)
Object type
Payload
Rocket body
Debris
Shape & HBR
Box + 2 Pan, 29 m
Radar Cross Section
36.964 m², Large (>1 m²)

Expand to show TLE details & history

TLE from 19 hours ago
0 STARLINK-11187
1 60184U 24124B   25128.50780345  .00001267  00000-0  15320-4 0  9993
2 60184  53.1586 225.5584 0001112  82.4838 277.6307 15.69705871 49787
Epoch: 2025-05-08T12:11Z
Definitive object data (Epoch: 2025-05-08T12:11:14.218Z)
Latitude
0.00006°
Longitude
176.17191°
Altitude
360.554 km
Speed
7.694 km/s
True Right ascension
15h 02m 14s
True Declination
0° 00' 00"
Sunlit
Object was in full shadow at TLE epoch
Visualization TLE readout
Latitude
35.16528°
Longitude
-39.37256°
Altitude
361.848 km
Speed
7.697 km/s
Apparent Right ascension
01h 52m 31s
Apparent Declination
-1° 13' 16"
Sunlit
Object is in daylight
Visualization observer readout
Local Sidereal Time
15:14:30
Azimuth
30.916° NE
Elevation
-47.049°
Doppler factor
1
Orbital elements
Apogee altitude
360.749 km
Perigee altitude
359.25 km
Semi-major axis
6,738.136 km
Eccentricity
0.0001112
Inclination
53.1586°
RAAN
225.5584°
Arg. of periapsis
82.4838°
True anomaly
277.61807°
Mean anomaly
277.6307°
Eccentric anomaly
277.62439°
Mean motion
3.92404 °/min
BSTAR
0.00001532
Orbital period
91.74 mins
Loading maneuver chart data...
Loading SW <> Apogee altitude chart data...
Loading historical data...
Loading historical data...
Loading historical data...
Loading historical data...
Loading historical data...
Loading historical data...
Loading historical data...

STARLINK-11187 Visibility forecast

Observer location: undefined°, undefined°

Span
Click to sort rows by Start time (UTC) header in descending order
Start Az.
Max El. time (UTC)
Max El. Az.
Max El.
End time (UTC)
End Az.
4 mins2025-05-09 08:12:34.442Z177.957° S2025-05-09 08:14:34.442Z134.242° SE18.094°2025-05-09 08:16:34.442Z86.823° E
4 mins2025-05-09 09:48:34.442Z277.707° WNW2025-05-09 09:49:34.442Z310.764° NW27.814°2025-05-09 09:52:34.442Z33.333° NE
|